Location: Unspecified
(0.0000°N, 0.0000°E)
Time: 18:19:10
(UTC+01:00)

ISS - All Passes

Search period start: 20 December 2014 00:00
Search period end: 30 December 2014 00:00
Orbit: 404 x 415 km, 51.6° (Epoch: 20 December)

Date Brightness Start Highest point End Pass type
(mag) Time Alt. Az. Time Alt. Az. Time Alt. Az.
20 Dec - 00:20:26 10° NW 00:23:40 75° SW 00:26:56 10° SSE night (unlit)
20 Dec - 11:55:08 10° SSW 11:58:25 63° SE 12:01:41 10° NE daylight
20 Dec - 23:30:00 10° NNW 23:33:01 36° NE 23:36:03 10° ESE night (unlit)
21 Dec - 11:05:01 10° S 11:07:43 23° SE 11:10:25 10° ENE daylight
21 Dec - 12:43:17 10° WNW 12:44:06 11° NW 12:44:55 10° NW daylight
21 Dec - 22:40:25 10° NNE 22:42:18 15° NE 22:44:10 10° E night (unlit)
22 Dec - 00:16:32 10° W 00:18:40 16° SW 00:20:48 10° SSW night (unlit)
22 Dec - 11:50:31 10° WSW 11:53:20 25° NW 11:56:09 10° N daylight
22 Dec - 23:24:48 10° NW 23:27:53 41° SW 23:30:59 10° SSE night (unlit)
23 Dec - 10:59:15 10° SW 11:02:33 72° NW 11:05:50 10° NNE daylight
23 Dec - 22:33:52 10° NNW 22:37:05 64° NE 22:40:18 10° SE night (unlit)
24 Dec - 10:08:36 10° SSW 10:11:43 37° SE 10:14:48 10° NE daylight
24 Dec - 21:43:35 10° N 21:46:13 23° NE 21:48:52 10° ESE night (unlit)
24 Dec - 23:22:10 10° WSW 23:22:36 10° SW 23:23:01 10° SW night (unlit)
25 Dec - 09:18:47 10° SSE 09:20:49 15° SE 09:22:50 10° E daylight
25 Dec - 10:55:01 10° W 10:57:10 16° NW 10:59:20 10° NNW daylight
25 Dec - 22:28:55 10° WNW 22:31:39 25° SW 22:34:24 10° S night (unlit)
26 Dec - 10:03:05 10° SW 10:06:14 41° NW 10:09:22 10° NNE daylight
26 Dec - 21:37:28 10° NW 21:40:42 71° SW 21:43:56 10° SSE night (unlit)
27 Dec - 09:11:58 10° SSW 09:15:15 65° SE 09:18:31 10° NE daylight
27 Dec - 20:46:40 10° NNW 20:49:42 37° NE 20:52:44 10° SE night (unlit)
28 Dec - 08:21:30 10° S 08:24:13 23° SE 08:26:55 10° ENE daylight
28 Dec - 09:59:58 10° WNW 10:00:34 10° NW 10:01:11 10° NW daylight
28 Dec - 19:56:43 10° NNE 19:58:38 15° NE 20:00:33 10° E visible
28 Dec - 21:32:53 10° W 21:34:59 16° SW 21:37:04 10° SSW night (unlit)
29 Dec - 09:06:41 10° WSW 09:09:28 25° NW 09:12:15 10° N daylight
29 Dec - 20:40:47 10° NW 20:43:51 40° SW 20:46:57 10° SSE visible
